Location: Chipilly
(49.9086°N, 2.6497°E)
Time: 08:19:24
(UTC+00:00)

Daily predictions for brighter satellites

Satellite Brightness Start Highest point End
(mag) Time Altitude Azimuth Time Altitude Azimuth Time Altitude Azimuth
Cosmos 2074 Rocket 4.1 18:51:49 10° N 18:58:04 62° ENE 19:04:18 10° SSE
ATLAS 5 CENTAUR R/B 3.0 18:56:45 10° SSE 18:59:26 17° ESE 19:02:17 10° ENE
Cosmos 1606 Rocket 4.2 18:55:34 10° SSE 18:59:35 35° E 19:03:38 10° NNE
STARLINK-1238 3.4 18:56:48 10° WNW 18:59:54 53° N 19:03:00 10° E
STARLINK-1216 4.2 18:56:37 10° WNW 19:00:42 54° N 19:04:47 10° E
STARLINK-1205 3.4 18:57:45 10° WNW 19:00:49 53° NNE 19:03:54 10° E
ADEOS Rocket 3.5 18:54:37 10° NNE 19:01:05 70° WNW 19:06:53 10° SSW
STARLINK-1204 3.4 18:58:12 10° WNW 19:01:16 53° N 19:04:20 10° E
Meteor 1-16 Rocket 4.4 18:58:53 10° SSE 19:04:04 49° E 19:09:27 10° NNE
Cosmos 1818 3.7 18:58:55 10° SSW 19:04:10 52° ESE 19:09:27 10° NE
STARLINK-1237 4.2 19:01:35 10° WNW 19:05:40 55° N 19:09:46 10° E
Meteor 2-15 Rocket 4.5 18:59:54 10° S 19:05:58 87° ESE 19:12:05 10° N
ISS -0.7 19:07:43 10° SW 19:08:06 10° SW 19:08:29 10° SW
Abrixas rocket 2.0 19:05:31 10° W 19:08:28 65° S 19:11:25 10° E
Cosmos 1943 Rocket 3.6 19:05:24 10° NW 19:10:32 39° WSW 19:15:40 10° S
STARLINK-1202 4.1 19:06:36 10° WNW 19:10:40 55° N 19:14:46 10° E
Meteor 1-21 Rocket 4.5 19:06:35 10° NNW 19:12:08 74° W 19:17:38 10° S
NOSS 3-4 (A) 3.9 19:05:18 10° NW 19:12:12 79° NE 19:19:50 10° SE
NOSS 3-4 (C) 3.9 19:05:25 10° NW 19:12:19 78° NE 19:19:56 10° SE
SL-4 R/B 1.9 19:15:41 10° SW 19:18:55 43° SSE 19:22:13 10° ENE
Cosmos 1300 4.5 19:17:23 10° ESE 19:19:32 15° E 19:21:43 10° NE
Cosmos 2369 Rocket 3.4 19:14:49 10° NW 19:20:11 44° WSW 19:25:29 10° S
STARLINK-1246 4.1 19:16:35 10° WNW 19:20:41 57° N 19:24:47 10° E
STARLINK-1203 4.1 19:17:14 10° WNW 19:21:23 58° N 19:25:33 10° E
MOS 1 Rocket 4.4 19:17:29 10° NNE 19:22:13 30° E 19:26:58 10° SSE
STARLINK-1201 3.2 19:19:18 10° WNW 19:22:33 63° NNE 19:25:27 12° E
NOSS 3-3 (A) 4.1 19:16:41 10° SW 19:22:38 86° NW 19:29:27 10° NE
NOSS 3-3 (C) 4.1 19:16:46 10° SW 19:22:44 87° NW 19:29:33 10° NE
MOS 1 4.3 19:17:34 10° SSE 19:23:14 90° ENE 19:28:57 10° NNW
Cosmos 1340 Rocket 3.7 19:20:22 10° SSE 19:23:54 30° E 19:27:26 10° NNE
CZ-2C R/B 4.2 19:20:20 10° NNE 19:24:46 39° E 19:29:07 10° SSE
Cosmos 1703 3.2 19:20:56 10° N 19:24:55 71° E 19:28:52 10° SSE
STARLINK-67 2.4 19:22:38 10° WNW 19:25:12 74° SSW 19:27:10 16° ESE
Cosmos 1328 3.8 19:21:33 10° N 19:25:33 69° ENE 19:29:32 10° SSE
STARLINK-1224 4.1 19:21:34 10° WNW 19:25:40 57° N 19:29:39 11° E
H-2A R/B 2.3 19:21:47 10° S 19:26:59 75° WSW 19:32:04 10° NNW
CZ-2C R/B 3.0 19:24:52 10° S 19:29:44 77° WSW 19:34:31 10° NNW
STARLINK-1225 4.0 19:26:35 10° WNW 19:30:41 58° N 19:34:27 12° E
Cosmos 1437 3.7 19:28:01 10° NNW 19:30:56 45° W 19:33:49 10° S
STARLINK-1230 4.0 19:31:34 10° WNW 19:35:40 60° N 19:39:14 13° E
Cosmos 2251 Rocket 4.4 19:31:42 10° SW 19:36:58 55° WNW 19:42:17 10° NNE
STARLINK-52 4.5 19:34:42 10° S 19:36:59 18° SE 19:37:28 17° SE
Cosmos 1908 3.2 19:33:42 10° S 19:37:31 64° E 19:41:23 10° NNE
SL-08 RB Rocket 3.7 19:33:10 10° SSE 19:37:43 88° ENE 19:42:23 10° NNW
STARLINK-1243 4.0 19:36:33 10° WNW 19:40:40 61° N 19:44:00 15° E
Resurs 1-3 3.7 19:37:28 10° SSE 19:41:47 61° ENE 19:46:08 10° N
USA 234 4.2 19:37:15 10° ENE 19:42:20 24° SE 19:47:23 10° S
SeaSat 1 3.5 19:38:58 10° NNE 19:43:44 49° NW 19:48:29 10° SW
ATLAS 2AS CENTAUR R/B 3.1 19:36:54 10° NW 19:44:33 73° SW 19:51:22 11° SSE
STARLINK-1228 2.7 19:42:33 10° WNW 19:45:30 78° SSW 19:47:06 24° ESE
STARLINK-1236 3.9 19:41:32 10° WNW 19:45:39 62° NNE 19:48:47 17° E
Cosmos 1943 3.6 19:41:52 10° SW 19:47:31 71° WNW 19:53:15 10° NNE
Ariane Rocket 4.2 19:43:11 10° S 19:48:00 43° W 19:52:51 10° NNW
Cosmos 1953 4.0 19:45:27 10° SW 19:49:09 37° WNW 19:52:54 10° N
CZ-4C R/B 4.1 19:44:04 10° NW 19:49:41 30° NNE 19:56:10 10° ENE
Cosmos 1140 Rocket 3.6 19:47:17 10° S 19:52:17 50° ESE 19:57:16 10° NNE
Cosmos 1726 3.5 19:49:07 10° SSW 19:52:41 43° WNW 19:56:16 10° N
Cosmos 2341 Rocket 4.1 19:47:50 10° N 19:54:09 60° ENE 19:59:56 13° SSE
STARLINK-1269 3.8 19:51:29 10° WNW 19:55:38 66° NNE 19:58:20 20° E
Meteor 1-11 4.4 19:52:14 10° NNW 19:58:02 80° W 20:03:43 10° S
Cosmos 1190 Rocket 4.0 19:53:26 10° S 19:58:41 65° ESE 20:03:56 10° NNE
Cosmos 2058 Rocket 3.0 19:54:58 10° S 19:59:26 72° E 20:03:57 10° NNE
Spot 2 Rocket 4.1 19:56:54 20° ESE 19:59:56 40° ENE 20:04:41 10° N
DMSP B5D2-2 4.0 19:54:57 10° NNE 20:00:09 63° ESE 20:05:20 10° S
STARLINK-1200 3.8 19:56:28 10° WNW 20:00:37 68° NNE 20:03:07 23° E
Cosmos 1697 Rocket 4.3 19:56:15 10° NNW 20:00:40 22° NE 20:04:03 14° E
COSMOS 2455 2.8 19:54:41 10° NW 20:00:46 84° NE 20:05:11 19° SE
CZ-2C R/B 2.6 19:55:42 10° NNE 20:00:48 55° E 20:05:54 10° S
MetOp-A 4.2 19:56:29 10° SSE 20:01:51 80° WSW 20:07:15 10° NNW
Cosmos 614 Rocket 4.0 19:59:24 10° SSW 20:04:39 84° WNW 20:09:53 10° NNE
STARLINK-1192 3.7 20:01:28 10° WNW 20:05:37 70° NNE 20:07:55 25° E
Cosmos 1726 Rocket 4.0 20:03:01 10° SSW 20:07:24 65° WNW 20:11:51 10° N
ARGOS 4.3 20:03:18 10° SSW 20:08:24 42° W 20:13:30 10° NNW
Cosmos 2218 Rocket 4.3 20:02:28 10° N 20:08:29 48° ENE 20:12:18 22° SE
Iridium 2 4.5 20:07:49 29° ESE 20:08:37 32° E 20:12:04 10° NNE
STARLINK-1244 3.7 20:06:26 10° WNW 20:10:35 73° NNE 20:12:41 28° E
USA 186 4.4 20:08:11 10° SW 20:10:42 20° W 20:13:09 10° NW
ERBS 2.9 20:07:48 10° NW 20:11:06 48° NNE 20:12:22 30° E
Resurs 01 Rocket 1.5 20:08:29 18° SSE 20:11:45 85° ENE 20:16:12 10° NNW
SL-24 R/B 4.0 20:07:49 10° N 20:11:59 73° WNW 20:15:44 10° SSW
BREEZE-M DEB (TANK) 1.3 20:10:54 10° WSW 20:14:46 75° S 20:15:10 55° ESE
ATLAS CENTAUR R/B 3.3 20:12:03 10° NNW 20:14:48 18° NNE 20:16:45 13° ENE
STARLINK-1138 3.7 20:11:25 10° WNW 20:15:34 76° NNE 20:17:28 31° E
Cosmos 468 Rocket 4.5 20:10:48 10° NNW 20:15:46 43° ENE 20:18:00 28° ESE
Cosmos 921 Rocket 3.2 20:14:53 10° NNW 20:19:03 65° WSW 20:21:45 21° S
STARLINK-1234 3.3 20:16:19 10° WNW 20:19:18 48° SSW 20:19:47 42° S
STARLINK-1233 3.0 20:16:15 10° WNW 20:19:22 62° SSW 20:19:56 50° SSE
STARLINK-1212 3.0 20:16:42 10° WNW 20:19:49 61° SSW 20:20:21 50° SSE
STARLINK-1105 3.0 20:17:09 10° WNW 20:20:16 61° SSW 20:20:48 50° SSE
STARLINK-1209 3.4 20:17:28 10° WNW 20:20:25 44° SSW 20:20:51 41° S
STARLINK-1143 3.6 20:16:23 10° WNW 20:20:33 79° NNE 20:22:15 35° E
STARLINK-1206 3.0 20:17:38 10° WNW 20:20:44 60° SSW 20:21:13 51° SSE
STARLINK-1247 3.0 20:18:06 10° WNW 20:21:11 60° SSW 20:21:39 51° SSE
STARLINK-1227 3.0 20:18:30 10° WNW 20:21:37 60° SSW 20:22:06 51° SSE
Cosmos 962 Rocket 4.5 20:15:28 10° N 20:21:40 85° W 20:27:13 13° S
Nadezhda 1 Rocket 4.5 20:15:20 10° SSW 20:21:40 65° WNW 20:28:00 10° N
STARLINK-1218 3.0 20:19:00 10° WNW 20:22:05 59° SSW 20:22:31 52° SSE
STARLINK-1226 3.0 20:19:26 10° WNW 20:22:31 59° SSW 20:22:58 52° SSE
STARLINK-1254 3.0 20:19:51 10° WNW 20:22:58 59° SSW 20:23:24 51° S
STARLINK-1215 3.0 20:20:21 10° WNW 20:23:26 58° SSW 20:23:49 52° S
STARLINK-1231 3.0 20:20:47 10° WNW 20:23:52 57° SSW 20:24:15 52° S
STARLINK-1232 3.0 20:21:43 10° WNW 20:24:47 57° SSW 20:25:08 52° S
SL-8 Rocket 4.0 20:18:38 10° N 20:24:58 72° ENE 20:29:12 22° SSE
STARLINK-1217 3.0 20:22:09 10° WNW 20:25:13 56° SSW 20:25:33 52° S
STARLINK-1241 3.6 20:21:24 10° WNW 20:25:34 82° NNE 20:27:04 39° ESE
STARLINK-1208 3.1 20:22:34 10° WNW 20:25:40 56° SSW 20:26:00 52° S
BREEZE-M DEB (TANK) 4.2 20:21:11 10° WNW 20:25:46 32° SW 20:26:31 28° S
Cosmos 2181 Rocket 4.0 20:20:34 13° S 20:26:05 60° E 20:32:09 10° NNE
STARLINK-1229 3.0 20:23:03 10° WNW 20:26:08 55° SSW 20:26:25 52° S
Cosmos 407 Rocket 3.8 20:21:14 10° SSW 20:26:21 68° WNW 20:31:29 10° NNE
STARLINK-1271 3.1 20:23:30 10° WNW 20:26:34 55° SSW 20:26:52 52° S
STARLINK-1270 3.1 20:23:58 10° WNW 20:27:02 55° SSW 20:27:17 52° S
SL-24 R/B - RUBIN 2 4.3 20:21:27 10° SW 20:27:10 89° NW 20:33:38 10° NE
Cosmos 676 Rocket 3.9 20:22:12 10° SSW 20:27:27 69° ESE 20:32:40 10° NNE
STARLINK-1154 3.1 20:24:24 10° WNW 20:27:28 54° SSW 20:27:43 52° S
STARLINK-1197 3.1 20:25:19 10° WNW 20:28:23 53° SSW 20:28:35 52° S
Cosmos 1656 4.2 20:23:07 10° NNW 20:28:35 45° NE 20:30:57 30° ESE
Cosmos 1455 4.3 20:30:12 15° ENE 20:30:12 15° ENE 20:31:22 10° NE
STARLINK-1189 3.1 20:25:46 10° WNW 20:28:50 53° SSW 20:29:01 52° SSW
ERS-1 Rocket 3.7 20:27:20 30° ESE 20:28:54 37° ENE 20:33:31 10° N
STARLINK-1198 3.1 20:26:13 10° WNW 20:29:16 53° SSW 20:29:27 51° SSW
Cosmos 1461 4.1 20:25:06 10° NW 20:29:21 40° WSW 20:32:00 21° S
STARLINK-1188 3.1 20:26:40 10° WNW 20:29:43 52° SSW 20:29:53 51° SSW
Cosmos 1980 Rocket 3.9 20:25:37 10° N 20:29:52 21° NE 20:32:34 16° ENE
STARLINK-1235 3.5 20:27:21 10° WNW 20:30:21 43° SSW 20:30:32 42° SSW
STARLINK-1239 3.5 20:26:21 10° WNW 20:30:31 85° NNE 20:31:48 43° ESE
Cosmos 1812 Rocket 3.8 20:29:45 39° SE 20:30:35 45° E 20:34:44 10° NNE
STARLINK-1187 3.3 20:27:46 10° WNW 20:30:49 47° SSW 20:30:59 46° SSW
Cosmos 1892 3.1 20:27:54 10° N 20:31:38 43° ENE 20:32:00 41° E
STARLINK-1199 3.2 20:28:36 10° WNW 20:31:40 51° SSW 20:31:48 50° SSW
STARLINK-1191 3.2 20:29:04 10° WNW 20:32:08 50° SSW 20:32:15 50° SSW
STARLINK-29 3.8 20:29:08 10° SW 20:31:20 36° SSW 20:31:20 36° SSW
STARLINK-1210 3.2 20:29:31 10° WNW 20:32:35 50° SSW 20:32:40 50° SSW
STARLINK-1221 3.3 20:29:58 10° WNW 20:33:02 50° SSW 20:33:07 49° SSW
MINOTAUR IV R/B 4.4 20:28:42 10° SSW 20:33:10 73° ESE 20:37:40 10° NNE
STARLINK-1219 3.3 20:30:25 10° WNW 20:33:29 49° SSW 20:33:32 49° SSW
STARLINK-1222 3.3 20:30:52 10° WNW 20:33:56 49° SSW 20:33:58 49° SSW
STARLINK-1211 3.3 20:31:19 10° WNW 20:34:23 49° SSW 20:34:25 48° SSW
STARLINK-60 2.9 20:31:09 10° WSW 20:34:27 90° NE 20:34:55 63° ENE
SPOT 5 3.5 20:34:13 29° E 20:34:49 31° ENE 20:38:38 10° N
STARLINK-1214 3.3 20:31:47 10° WNW 20:34:49 48° SSW 20:34:50 48° SSW
STARLINK-1245 3.4 20:32:16 10° WNW 20:35:16 47° SSW 20:35:16 47° SSW
STARLINK-1240 3.5 20:31:21 10° WNW 20:35:31 89° NNE 20:36:36 49° ESE
STARLINK-1238 3.4 20:32:41 10° WNW 20:35:43 47° SSW 20:35:43 47° SSW
STARLINK-1205 3.4 20:33:37 10° WNW 20:36:34 46° SW 20:36:34 46° SW
Cosmos 220 Rocket 3.9 20:32:35 10° NNW 20:36:57 80° ENE 20:38:14 45° SE
STARLINK-1204 3.4 20:34:04 10° WNW 20:36:59 46° SW 20:36:59 46° SW
Cosmos 2366 rocket 3.9 20:31:42 10° N 20:37:51 72° ENE 20:41:05 30° SSE
STARLINK-1216 3.5 20:36:20 10° WNW 20:40:30 88° SSW 20:41:24 54° ESE
Cosmos 1825 3.7 20:38:28 10° NNE 20:41:04 23° ENE 20:41:04 23° ENE
Terra 2.8 20:42:27 29° E 20:43:10 30° ENE 20:47:19 10° N
ATLAS 5 CENTAUR R/B 1.7 20:39:05 10° SW 20:43:19 76° NW 20:48:10 10° NE
Abrixas rocket 3.5 20:41:09 10° W 20:43:05 27° SW 20:43:05 27° SW
Cosmos 1959 Rocket 4.4 20:37:58 10° N 20:44:19 81° E 20:47:43 29° SSE
STARLINK-1237 3.5 20:41:18 10° WNW 20:45:28 84° SSW 20:46:09 61° SE
Cosmos 2151 3.6 20:46:01 10° N 20:49:51 38° ENE 20:49:51 38° ENE
Cosmos 2058 2.7 20:45:55 10° N 20:50:03 86° E 20:50:47 59° SSE
STARLINK-1202 3.5 20:46:18 10° WNW 20:50:27 80° SSW 20:50:57 66° SE
Cosmos 1954 Rocket 4.0 20:45:16 10° SSW 20:50:31 83° WNW 20:55:46 10° NNE
Cosmos 192 4.3 20:45:38 10° NNW 20:50:37 88° WSW 20:52:10 45° SSE
RESURS DK-1 3.0 20:49:01 10° NNW 20:52:59 42° NE 20:53:17 41° ENE
SPOT 1/Viking Rocket 3.5 20:52:38 44° SE 20:54:16 74° ENE 20:59:31 10° NNW
Cosmos 1300 3.5 20:52:16 19° SSW 20:54:46 51° WNW 20:58:31 10° N
FALCON 9 DEB 4.4 20:51:36 10° WSW 20:53:39 32° SW 20:53:39 32° SW
Cosmos 1741 Rocket 4.2 20:54:59 46° ESE 20:55:23 47° ESE 21:00:30 10° NNE
Cosmos 1076 Rocket 3.5 20:53:49 10° NNW 20:58:07 78° W 20:59:02 54° S
SL-4 R/B 1.7 20:55:00 10° W 20:58:16 69° NNW 20:58:16 69° NNW
STARLINK-1201 4.4 20:55:40 10° WNW 20:58:00 31° WSW 20:58:00 31° WSW
In-Cosmos 22 Rocket 4.4 20:53:44 10° NNW 20:59:35 75° W 21:02:23 32° S
Cosmos 2208 Rocket 4.4 20:54:48 10° NNW 20:59:51 48° ENE 21:00:47 43° E
STARLINK-1246 3.5 20:56:16 10° WNW 21:00:24 72° SSW 21:00:32 71° SSW
Cosmos 2082 Rocket 4.3 21:03:59 12° ENE 21:03:59 12° ENE 21:04:35 10° ENE
STARLINK-1203 3.6 20:57:08 10° WNW 21:01:18 67° SSW 21:01:25 67° SSW
STARLINK-1224 3.6 21:01:15 10° WNW 21:05:18 67° SW 21:05:18 67° SW
Cosmos 1763 Rocket 3.4 21:04:15 10° NNW 21:09:29 89° WSW 21:10:29 59° SSE
SAR-Lupe-2 4.5 21:06:41 10° N 21:10:09 47° WNW 21:11:06 37° WSW
STARLINK-1225 3.8 21:06:15 10° WNW 21:10:06 62° SW 21:10:06 62° SW
Cosmos 1833 Rocket 4.0 21:13:43 24° ENE 21:13:43 24° ENE 21:16:36 10° NE
Cosmos 489 Rocket 4.4 21:06:48 10° NNW 21:13:02 75° ENE 21:14:41 51° SE
STARLINK-1230 4.0 21:11:14 10° WNW 21:14:53 56° WSW 21:14:53 56° WSW
BREEZE M DEB (TANK) 3.5 21:12:51 10° SW 21:16:50 66° SSE 21:30:05 10° ENE
Cosmos 1814 Rocket 4.1 21:13:32 10° NNW 21:18:51 59° ENE 21:19:27 55° E
Cosmos 540 Rocket 3.5 21:13:46 10° NNW 21:18:54 59° ENE 21:19:20 57° E
Cosmos 1821 Rocket 4.1 21:12:52 10° N 21:19:12 63° ENE 21:20:35 51° SE
Cosmos 1174 4.4 21:15:52 10° NW 21:19:55 55° WSW 21:20:14 54° SW
STARLINK-1243 4.2 21:16:12 10° WNW 21:19:39 50° WSW 21:19:39 50° WSW
Cosmos-2242 3.5 21:21:21 49° NE 21:21:21 49° NE 21:24:45 10° NNE
COSMOS 2406 3.2 21:20:59 57° ESE 21:20:59 57° ESE 21:26:32 10° NE
SL-08 R/B 4.4 21:16:55 10° NNW 21:23:04 81° W 21:25:05 46° S
Meteor 2-10 Rocket 3.5 21:23:20 64° ESE 21:23:25 64° E 21:28:47 10° NNE
Cosmos 1934 Rocket 4.4 21:17:56 10° N 21:23:55 44° ENE 21:24:38 42° E
Iridium 4 Rocket 3.6 21:20:03 10° NNW 21:24:08 50° W 21:24:45 45° WSW
STARLINK-1236 4.4 21:21:11 10° WNW 21:24:26 44° WSW 21:24:26 44° WSW
USA 234 3.1 21:19:34 10° ENE 21:26:08 71° SE 21:32:39 10° SW
USA 32 4.0 21:25:18 10° N 21:30:34 83° W 21:31:15 68° SSW
Cosmos 1408 3.7 21:33:58 10° NNW 21:36:38 42° NW 21:36:38 42° NW
CZ-4C R/B 3.1 21:32:40 10° NW 21:39:31 63° NE 21:42:00 44° E
Cosmos 2369 3.5 21:33:59 10° NNW 21:39:41 80° ENE 21:40:06 74° ESE
Cosmos 1850 Rocket 4.0 21:39:34 56° SW 21:40:38 76° WNW 21:45:51 10° NNE
CARTOSAT-1 4.0 21:43:22 56° W 21:43:22 56° W 21:47:21 10° NNW
ASTEX 1 3.8 21:44:36 54° NE 21:44:36 54° NE 21:48:54 10° N
Cosmos 1697 Rocket 2.5 21:39:44 10° NNW 21:45:28 89° ENE 21:45:47 81° SE
Cosmos 1356 Rocket 4.1 21:46:43 56° NNW 21:46:43 56° NNW 21:50:15 10° N
Cosmos 841 Rocket 3.4 21:41:31 10° NNW 21:46:49 78° WSW 21:46:52 78° WSW
Resurs 01 Rocket 4.3 21:47:02 10° WSW 21:48:52 12° W 21:50:42 10° WNW
Mayak 0.6 21:46:04 10° NNE 21:47:47 22° NE 21:47:47 22° NE
Okean 3 Rocket 4.1 21:46:09 10° NNW 21:50:04 56° WNW 21:50:04 56° WNW
ATLAS CENTAUR R/B 2.6 21:50:29 10° NW 21:52:56 36° NNW 21:52:56 36° NNW
Cosmos 1766 Rocket 4.1 21:51:10 10° NNW 21:54:58 56° NW 21:54:58 56° NW
SL-16 R/B 3.5 21:58:29 10° NNW 22:03:28 30° NE 22:04:14 29° ENE
Cosmos 1455 3.9 22:05:04 32° NW 22:05:04 32° NW 22:07:40 10° N
Cosmos 2360 Rocket 4.2 22:02:36 10° N 22:06:30 19° NE 22:08:30 16° ENE
ERS-1 Rocket 4.1 22:07:19 34° WSW 22:07:43 35° W 22:12:20 10° NNW
Meteor 2-3 Rocket 3.7 22:05:24 10° NNW 22:11:01 84° NW 22:11:01 84° NW
Cosmos 2322 Rocket 3.5 22:06:57 10° NNW 22:11:52 29° NE 22:12:34 28° ENE
SPOT 5 4.1 22:13:27 31° W 22:13:27 31° W 22:16:48 10° NNW
Cosmos 1980 Rocket 2.2 22:09:04 10° NNW 22:14:19 77° N 22:14:19 77° N
Cosmos 1825 4.3 22:13:47 10° NNW 22:15:53 24° NW 22:15:53 24° NW
Terra 2.9 22:21:20 38° W 22:21:20 38° W 22:25:18 10° NNW
ATLAS 5 CENTAUR R/B 4.0 22:25:07 10° WNW 22:28:49 24° NNW 22:32:56 10° NNE
Thor Agena Rocket 4.2 22:35:50 10° NNE 22:39:38 51° N 22:39:38 51° N
Cosmos 2278 4.3 22:36:16 10° NW 22:40:53 48° W 22:40:53 48° W
Cosmos 2082 Rocket 2.7 22:45:47 54° NNE 22:45:47 54° NNE 22:50:07 10° NNE
Cosmos 1833 Rocket 3.3 22:55:21 53° WNW 22:55:25 53° NW 23:00:57 10° NNE
Cosmos 2344 4.3 22:46:00 10° NW 22:55:26 78° SW 22:58:33 56° SSE
Cosmos 2221 4.3 22:58:41 30° N 22:58:41 30° N 23:01:02 10° N
Cosmos 1727 Rocket 4.2 22:58:39 63° NE 22:58:39 63° NE 23:04:07 10° NNE
Cosmos 2219 Rocket 4.3 23:01:04 10° N 23:05:01 19° NE 23:07:20 15° ENE
Cosmos 1802 Rocket 4.4 23:02:31 10° N 23:07:59 52° NE 23:07:59 52° NE
USA 234 3.7 23:02:42 10° ENE 23:09:05 59° NNW 23:15:29 10° W
Cosmos 2100 Rocket 4.2 23:07:28 10° N 23:12:57 67° NNE 23:12:57 67° NNE
Cosmos 2173 Rocket 4.2 23:16:37 10° N 23:21:49 65° N 23:21:49 65° N
Mayak 1.1 23:22:12 10° NNW 23:24:21 20° NW 23:24:21 20° NW
CZ-4C R/B 3.5 23:21:20 10° NW 23:27:10 43° W 23:27:10 43° W
MOS 1-B Rocket 4.3 23:40:57 10° NNE 23:46:30 71° NE 23:46:30 71° NE
SL-16 R/B 3.2 23:42:22 10° NW 23:46:04 40° NW 23:46:04 40° NW
Cosmos 2360 Rocket 2.9 23:45:56 10° NNW 23:50:15 51° N 23:50:15 51° N
